Weather observations for the past three days for
Crescent City, Jack McNamara Field Airport
Imperial (Metric)
Date Time (pdt) Wind (mph) Vis. (mi.) Weather Sky Cond. Temperature (ºF) Relative Humidity Wind Chill (°F) Heat Index (°F) Pressure Precipitation (in)
Air Dwpt 6 hour altimeter (in) sea level (mb) 1 hr 3 hr 6 hr
Max. Min.
18 00:56 N 3 0.75 Fog/Mist VV002 55 55 100% 30.1 1019.3
17 23:56 N 3 3.00 Fog/Mist OVC002 55 55 100% 30.11 1019.5
17 22:56 N 3 8.00 Overcast OVC003 55 55 63 54 100% 30.12 1020.0
17 21:56 N 3 10.00 A Few Clouds FEW004 54 54 100% 30.12 1019.9
17 20:56 Calm 10.00 A Few Clouds FEW004 55 54 96% 30.11 1019.6
17 19:56 W 5 10.00 Fair CLR 57.9 55 90% 30.11 1019.5
17 18:56 W 6 10.00 A Few Clouds FEW002 60.1 55 84% 30.1 1019.5
17 17:56 SW 6 10.00 Fair CLR 62.1 55.9 80% 30.11 1019.5
17 16:56 S 8 10.00 Fair CLR 63 55 64.9 60.1 76% 30.12 1020.0
17 15:56 S 9 10.00 Fair CLR 63 55 76% 30.14 1020.5
17 14:56 S 8 10.00 Fair CLR 62.1 55 78% 30.14 1020.7
17 13:56 S 9 10.00 Fair CLR 64 55 73% 30.13 1020.3
17 12:56 S 5 10.00 Mostly Cloudy BKN017 63 55 76% 30.13 1020.2
17 11:56 S 6 10.00 Overcast OVC017 63 54 73% 30.12 1020.0
17 10:56 SE 9 10.00 Overcast OVC015 60.1 53.1 60.1 55 78% 30.11 1019.5
17 08:56 S 9 10.00 Overcast OVC014 57 52 83% 30.09 1019.1
17 07:56 SE 3 10.00 Overcast OVC016 57 52 83% 30.08 1018.7
17 06:56 E 5 10.00 Overcast OVC017 55.9 51.1 84% 30.06 1018.0
17 05:56 E 5 10.00 Overcast OVC018 55 51.1 87% 30.05 1017.6
17 04:56 E 6 10.00 Overcast OVC019 55.9 51.1 59 55.9 84% 30.04 1017.5
17 03:56 SE 6 10.00 Overcast OVC020 55.9 51.1 84% 30.04 1017.4
17 02:56 SE 6 10.00 Overcast OVC017 57 51.1 81% 30.05 1017.6
17 01:56 S 6 10.00 Overcast OVC019 57 51.1 81% 30.04 1017.5
17 00:56 S 7 10.00 Overcast OVC020 57 51.1 81% 30.05 1017.6
16 23:56 S 6 10.00 Overcast OVC021 57 51.1 81% 30.05 1017.6
16 22:56 S 7 10.00 Overcast OVC023 57.9 51.1 60.1 57 78% 30.05 1017.6
16 21:56 S 6 10.00 Overcast OVC022 57.9 51.1 78% 30.05 1017.6
16 20:56 S 6 10.00 Overcast OVC022 57 51.1 81% 30.04 1017.4
16 19:56 S 7 10.00 A Few Clouds FEW023 57.9 51.1 78% 30.04 1017.3
16 18:56 S 8 10.00 Overcast OVC024 59 51.1 75% 30.04 1017.2
16 17:56 S 8 10.00 Partly Cloudy SCT025 59 50 72% 30.04 1017.4
16 16:56 S 8 10.00 Overcast OVC021 57.9 52 59 55 81% 30.05 1017.7
16 15:56 S 9 10.00 Overcast BKN012 OVC019 57.9 52 81% 30.05 1017.6
16 14:56 S 12 10.00 Overcast SCT008 BKN011 OVC017 57.9 54 87% 30.05 1017.6
16 13:56 S 12 10.00 Overcast BKN006 BKN013 OVC020 57.9 54 87% 30.06 1017.9
16 12:56 S 9 10.00 Overcast OVC011 55.9 53.1 90% 30.06 1018.1
16 11:56 S 13 10.00 Overcast BKN017 OVC023 57.9 53.1 84% 30.06 1017.9
16 10:56 S 10 9.00 Overcast BKN004 OVC010 55 54 55.9 52 96% 30.05 1017.5
16 09:56 S 7 4.00 Fog/Mist OVC006 55 54 96% 30.03 1017.0
16 08:56 S 6 8.00 Overcast OVC010 55 54 96% 30.02 1016.7
16 07:56 SE 5 10.00 Overcast OVC007 54 53.1 97% 30.02 1016.6
16 06:56 SE 5 10.00 Overcast OVC006 53.1 52 96% 30.01 1016.2
16 05:56 Calm 7.00 Overcast OVC006 53.1 53.1 100% 30 1016.0
16 04:56 S 6 10.00 Overcast OVC006 53.1 52 53.1 52 96% 30.01 1016.2
16 03:56 Calm 10.00 Overcast OVC006 53.1 53.1 100% 30 1016.0
16 02:56 SE 3 6.00 Fog/Mist OVC006 53.1 53.1 100% 30.01 1016.3
16 01:56 S 3 10.00 Overcast OVC006 53.1 53.1 100% 30.01 1016.3
16 00:56 SE 5 4.00 Fog/Mist OVC004 53.1 53.1 100% 30.03 1016.8
15 23:56 S 5 10.00 Overcast OVC004 52 52 100% 30.03 1016.9
15 22:56 S 6 6.00 Fog/Mist OVC003 53.1 53.1 57 53.1 100% 30.03 1016.9
15 21:56 Calm 4.00 Fog/Mist OVC003 53.1 53.1 100% 30.03 1016.9
15 20:56 Vrbl 3 5.00 Fog/Mist OVC003 53.1 53.1 100% 30.04 1017.2
15 19:56 S 8 2.00 Fog/Mist OVC003 53.1 53.1 100% 30.04 1017.2
15 18:56 S 5 9.00 Overcast OVC003 54 53.1 97% 30.04 1017.4
15 17:56 S 10 8.00 Overcast OVC003 55 53.1 93% 30.05 1017.7
15 16:56 S 12 6.00 Fog/Mist OVC004 55.9 52 60.1 54 87% 30.05 1017.6
15 15:56 S 12 5.00 Fog/Mist OVC003 57 53.1 87% 30.06 1017.9
15 14:56 S 12 5.00 Fog/Mist OVC004 57 54 90% 30.07 1018.3
15 13:56 S 14 10.00 Fair CLR 57.9 52 81% 30.07 1018.2
15 12:56 S 13 G 23 10.00 Overcast OVC005 57.9 53.1 84% 30.08 1018.6
15 11:56 S 14 10.00 Overcast OVC004 57 52 83% 30.09 1018.9
15 10:56 S 15 10.00 Overcast OVC003 54 52 55 50 93% 30.09 1018.9
15 09:56 S 14 8.00 Overcast OVC003 51.1 51.1 100% 30.08 1018.8
15 08:56 S 13 0.75 Fog/Mist VV002 51.1 51.1 100% 30.07 1018.3
15 07:56 S 9 0.50 Fog VV002 51.1 51.1 100% 30.06 1017.8
15 06:56 S 6 0.25 Fog VV002 50 50 100% 48 30.05 1017.5
15 05:56 S 5 0.50 Fog VV002 51.1 51.1 100% 30.04 1017.3
15 04:56 S 3 0.25 Fog VV002 52 52 52 50 100% 30.03 1016.9
15 03:56 SE 3 0.25 Fog VV002 51.1 51.1 100% 30.03 1016.9
15 02:56 Calm 0.75 Fog/Mist VV003 51.1 51.1 100% 30.03 1017.0
15 01:56 Calm 0.25 Fog VV001 50 50 100% 30.05 1017.5
Date Time (pdt) Wind (mph) Vis. (mi.) Weather Sky Cond. Air Dwpt Max. Min. Relative Humidity Wind Chill (°F) Heat Index (°F) altimeter (in) sea level (mb) 1 hr 3 hr 6 hr
6 hour
Temperature (ºF) Pressure Precipitation (in)